EJU34XG LYTV-EDDB

Flight info

Callsign EJU34XG
Flight time 2h 1m
Altitude 36000
Route NIK DCT GACMO DCT VEBAL DCT STEIN DCT LANUX DCT BEKVI DCT LEGAZ DCT BEFRE T204 NUKRO NUKRO1R
Aircraft A320/M-SDE2E3FGHIJ1RWXYZ/LB1

Departure

Time 2026-05-06 19:46
Airport Tivat Airport (LYTV)

Arrival

Time 2026-05-06 21:47
Airport Berlin Brandenburg Airport (EDDB)
Time Latitude Longitude Altitude Speed Heading
2026-05-06 19:21 42.41211 18.71698 47 ft 0 kts 169°
2026-05-06 19:41 42.41201 18.71693 22 ft 4 kts 202°
2026-05-06 19:41 42.41195 18.71669 23 ft 3 kts 275°
2026-05-06 19:41 42.41205 18.71646 23 ft 3 kts 308°
2026-05-06 19:41 42.41227 18.71617 24 ft 6 kts 317°
2026-05-06 19:42 42.41275 18.71560 22 ft 12 kts 319°
2026-05-06 19:42 42.41331 18.71494 20 ft 6 kts 319°
2026-05-06 19:42 42.41357 18.71459 21 ft 5 kts 304°
2026-05-06 19:42 42.41360 18.71437 20 ft 0 kts 269°
2026-05-06 19:43 42.41360 18.71434 20 ft 2 kts 268°
2026-05-06 19:44 42.41349 18.71393 20 ft 6 kts 238°
2026-05-06 19:44 42.41317 18.71360 21 ft 6 kts 204°
2026-05-06 19:44 42.41280 18.71370 21 ft 5 kts 142°
2026-05-06 19:44 42.41279 18.71371 21 ft 0 kts 141°
2026-05-06 19:45 42.41248 18.71406 19 ft 30 kts 139°
2026-05-06 19:45 42.40901 18.71818 22 ft 99 kts 139°
2026-05-06 19:45 42.40244 18.72602 23 ft 153 kts 138°
2026-05-06 19:45 42.39385 18.73619 428 ft 167 kts 139°
2026-05-06 19:46 42.38392 18.74477 1121 ft 168 kts 157°
2026-05-06 19:46 42.37295 18.74956 1930 ft 165 kts 163°
2026-05-06 19:46 42.36200 18.75382 2644 ft 165 kts 160°
2026-05-06 19:46 42.35035 18.75852 2965 ft 185 kts 161°
2026-05-06 19:47 42.33757 18.76371 3409 ft 196 kts 161°
2026-05-06 19:47 42.32422 18.76913 3914 ft 205 kts 162°
2026-05-06 19:47 42.31028 18.77478 4402 ft 215 kts 162°
2026-05-06 19:47 42.29564 18.78073 5017 ft 223 kts 164°
2026-05-06 19:48 42.28083 18.78655 5724 ft 228 kts 169°
2026-05-06 19:48 42.26506 18.78600 6385 ft 231 kts 199°
2026-05-06 19:48 42.25136 18.77418 6913 ft 243 kts 229°
2026-05-06 19:48 42.24113 18.75587 7667 ft 245 kts 233°
2026-05-06 19:49 42.23107 18.73726 8464 ft 247 kts 233°
2026-05-06 19:49 42.22108 18.71836 9280 ft 248 kts 238°
2026-05-06 19:49 42.21592 18.69610 10010 ft 255 kts 266°
2026-05-06 19:49 42.21967 18.67239 10565 ft 270 kts 296°
2026-05-06 19:50 42.23233 18.65343 11133 ft 283 kts 318°
2026-05-06 19:50 42.24973 18.63902 11407 ft 310 kts 338°
2026-05-06 19:50 42.27183 18.63407 11585 ft 336 kts 353°
2026-05-06 19:50 42.29579 18.63189 11956 ft 351 kts 354°
2026-05-06 19:51 42.32041 18.63000 12566 ft 357 kts 354°
2026-05-06 19:51 42.34531 18.62818 13233 ft 360 kts 354°
2026-05-06 19:51 42.37047 18.62624 13895 ft 364 kts 353°
2026-05-06 19:51 42.39586 18.62413 14486 ft 367 kts 353°
2026-05-06 19:52 42.42109 18.62194 15064 ft 369 kts 353°
2026-05-06 19:52 42.44681 18.61966 15652 ft 372 kts 353°
2026-05-06 19:52 42.47278 18.61735 16233 ft 375 kts 352°
2026-05-06 19:52 42.49893 18.61501 16835 ft 378 kts 353°
2026-05-06 19:53 42.52526 18.61266 17433 ft 380 kts 353°
2026-05-06 19:53 42.55175 18.61034 17996 ft 383 kts 353°
2026-05-06 19:53 42.57837 18.60804 18529 ft 385 kts 352°
2026-05-06 19:53 42.60524 18.60571 19015 ft 388 kts 352°
2026-05-06 19:54 42.63225 18.60335 19513 ft 390 kts 352°
2026-05-06 19:54 42.65938 18.60097 19993 ft 392 kts 352°
2026-05-06 19:54 42.68635 18.59861 20489 ft 395 kts 352°
2026-05-06 19:54 42.71389 18.59621 20961 ft 398 kts 352°
2026-05-06 19:55 42.74160 18.59379 21417 ft 400 kts 352°
2026-05-06 19:55 42.76949 18.59130 21875 ft 403 kts 352°
2026-05-06 19:55 42.79756 18.58879 22341 ft 406 kts 352°
2026-05-06 19:55 42.82582 18.58627 22771 ft 408 kts 352°
2026-05-06 19:56 42.85431 18.58371 23214 ft 411 kts 352°
2026-05-06 19:56 42.88293 18.58115 23650 ft 414 kts 352°
2026-05-06 19:56 42.91137 18.57862 23984 ft 417 kts 352°
2026-05-06 19:56 42.94043 18.57603 24328 ft 420 kts 352°
2026-05-06 19:57 42.96972 18.57342 24692 ft 422 kts 352°
2026-05-06 19:57 42.99909 18.57081 25057 ft 424 kts 352°
2026-05-06 19:57 43.02856 18.56819 25431 ft 426 kts 352°
2026-05-06 19:57 43.05822 18.56556 25772 ft 428 kts 352°
2026-05-06 19:58 43.08799 18.56293 26134 ft 429 kts 352°
2026-05-06 19:58 43.11783 18.56025 26511 ft 430 kts 352°
2026-05-06 19:58 43.14736 18.55509 26864 ft 427 kts 343°
2026-05-06 19:58 43.17549 18.54444 27204 ft 425 kts 338°
2026-05-06 19:59 43.20377 18.53245 27551 ft 426 kts 338°
2026-05-06 19:59 43.23213 18.52043 27891 ft 428 kts 338°
2026-05-06 19:59 43.26062 18.50836 28239 ft 429 kts 338°
2026-05-06 19:59 43.28923 18.49624 28584 ft 431 kts 338°
2026-05-06 20:00 43.31790 18.48411 28896 ft 432 kts 338°
2026-05-06 20:00 43.34669 18.47192 29181 ft 434 kts 338°
2026-05-06 20:00 43.37556 18.45968 29504 ft 435 kts 338°
2026-05-06 20:00 43.40416 18.44756 29823 ft 436 kts 337°
2026-05-06 20:01 43.43321 18.43524 30143 ft 438 kts 337°
2026-05-06 20:01 43.46240 18.42285 30387 ft 440 kts 337°
2026-05-06 20:01 43.49172 18.41036 30570 ft 443 kts 338°
2026-05-06 20:01 43.52128 18.39773 30723 ft 446 kts 338°
2026-05-06 20:02 43.55102 18.38501 30946 ft 448 kts 338°
2026-05-06 20:02 43.58075 18.37233 31289 ft 446 kts 337°
2026-05-06 20:02 43.60997 18.35989 31646 ft 444 kts 337°
2026-05-06 20:02 43.63944 18.34735 31981 ft 442 kts 336°
2026-05-06 20:03 43.66874 18.33487 32324 ft 441 kts 336°
2026-05-06 20:03 43.69802 18.32236 32673 ft 439 kts 336°
2026-05-06 20:03 43.72709 18.30986 33051 ft 436 kts 336°
2026-05-06 20:03 43.75599 18.29743 33436 ft 433 kts 335°
2026-05-06 20:04 43.78469 18.28509 33820 ft 431 kts 335°
2026-05-06 20:04 43.81287 18.27296 34008 ft 428 kts 334°
2026-05-06 20:04 43.86896 18.24887 34029 ft 419 kts 334°
2026-05-06 20:05 43.92452 18.22474 34036 ft 418 kts 335°
2026-05-06 20:05 43.97999 18.20064 34028 ft 418 kts 335°
2026-05-06 20:06 44.03517 18.17676 34021 ft 418 kts 335°
2026-05-06 20:06 44.09073 18.15257 34013 ft 419 kts 334°
2026-05-06 20:07 44.14631 18.12832 34015 ft 418 kts 335°
2026-05-06 20:07 44.20183 18.10411 34022 ft 418 kts 335°
2026-05-06 20:08 44.25739 18.07986 33996 ft 419 kts 335°
2026-05-06 20:08 44.31260 18.05573 33986 ft 418 kts 335°
2026-05-06 20:09 44.36818 18.03133 33980 ft 419 kts 335°
2026-05-06 20:09 44.42374 18.00682 33966 ft 419 kts 335°
2026-05-06 20:10 44.47930 17.98233 33964 ft 419 kts 335°
2026-05-06 20:10 44.53451 17.95807 33950 ft 419 kts 335°
2026-05-06 20:11 44.59017 17.93348 33937 ft 420 kts 335°
2026-05-06 20:11 44.64589 17.90877 33932 ft 420 kts 335°
2026-05-06 20:12 44.70173 17.88397 33923 ft 421 kts 335°
2026-05-06 20:12 44.75729 17.85920 33946 ft 423 kts 334°
2026-05-06 20:13 44.78544 17.84661 34074 ft 427 kts 335°
2026-05-06 20:13 44.81385 17.83389 34235 ft 429 kts 335°
2026-05-06 20:13 44.84232 17.82118 34458 ft 429 kts 335°
2026-05-06 20:13 44.87081 17.80847 34714 ft 429 kts 335°
2026-05-06 20:14 44.89921 17.79578 34962 ft 428 kts 335°
2026-05-06 20:14 44.92764 17.78304 35201 ft 428 kts 335°
2026-05-06 20:14 44.95601 17.77032 35425 ft 428 kts 335°
2026-05-06 20:14 44.98400 17.75777 35644 ft 428 kts 336°
2026-05-06 20:15 45.01238 17.74502 35852 ft 428 kts 336°
2026-05-06 20:15 45.04070 17.73228 35933 ft 427 kts 336°
2026-05-06 20:15 45.09727 17.70677 35943 ft 426 kts 336°
2026-05-06 20:16 45.15382 17.68121 35943 ft 427 kts 336°
2026-05-06 20:16 45.20999 17.65583 35944 ft 428 kts 337°
2026-05-06 20:17 45.26677 17.63013 35943 ft 429 kts 337°
2026-05-06 20:17 45.32367 17.60425 35950 ft 429 kts 336°
2026-05-06 20:18 45.38053 17.57836 35944 ft 429 kts 336°
2026-05-06 20:18 45.43747 17.55245 35940 ft 429 kts 336°
2026-05-06 20:19 45.49394 17.52655 35939 ft 430 kts 336°
2026-05-06 20:19 45.55085 17.50044 35936 ft 429 kts 336°
2026-05-06 20:20 45.60776 17.47423 35939 ft 430 kts 336°
2026-05-06 20:20 45.66468 17.44805 35947 ft 431 kts 337°
2026-05-06 20:21 45.72145 17.42201 35930 ft 432 kts 337°
2026-05-06 20:21 45.77860 17.39557 35925 ft 432 kts 336°
2026-05-06 20:22 45.83583 17.36908 35919 ft 432 kts 337°
2026-05-06 20:22 45.89314 17.34257 35918 ft 433 kts 337°
2026-05-06 20:23 45.95005 17.31607 35917 ft 433 kts 336°
2026-05-06 20:23 46.00742 17.28920 35914 ft 434 kts 336°
2026-05-06 20:24 46.06478 17.26217 35919 ft 434 kts 336°
2026-05-06 20:24 46.12217 17.23492 35917 ft 435 kts 336°
2026-05-06 20:25 46.17925 17.20775 35912 ft 435 kts 336°
2026-05-06 20:25 46.23683 17.18038 35911 ft 436 kts 336°
2026-05-06 20:26 46.29448 17.15296 35913 ft 436 kts 336°
2026-05-06 20:26 46.35200 17.12538 35915 ft 435 kts 336°
2026-05-06 20:27 46.40909 17.09793 35929 ft 435 kts 336°
2026-05-06 20:27 46.46666 17.07029 35910 ft 436 kts 336°
2026-05-06 20:28 46.52431 17.04264 35917 ft 437 kts 336°
2026-05-06 20:28 46.58195 17.01492 35910 ft 437 kts 336°
2026-05-06 20:29 46.63930 16.98728 35918 ft 437 kts 336°
2026-05-06 20:29 46.69700 16.95925 35915 ft 437 kts 336°
2026-05-06 20:30 46.78353 16.91713 35908 ft 437 kts 336°
2026-05-06 20:31 46.84133 16.88898 35898 ft 438 kts 336°
2026-05-06 20:31 46.89887 16.86091 35870 ft 439 kts 336°
2026-05-06 20:32 46.95689 16.83256 35871 ft 440 kts 336°
2026-05-06 20:32 47.01497 16.80404 35875 ft 441 kts 336°
2026-05-06 20:33 47.07313 16.77536 35859 ft 441 kts 336°
2026-05-06 20:33 47.13097 16.74685 35859 ft 442 kts 336°
2026-05-06 20:34 47.18922 16.71811 35863 ft 442 kts 336°
2026-05-06 20:34 47.24765 16.68920 35854 ft 444 kts 335°
2026-05-06 20:35 47.30631 16.66008 35837 ft 446 kts 335°
2026-05-06 20:35 47.36473 16.63095 35828 ft 447 kts 335°
2026-05-06 20:36 47.42362 16.60147 35827 ft 446 kts 333°
2026-05-06 20:36 47.48027 16.56522 35834 ft 444 kts 330°
2026-05-06 20:37 47.53674 16.52827 35825 ft 444 kts 330°
2026-05-06 20:37 47.59284 16.49150 35813 ft 444 kts 330°
2026-05-06 20:38 47.64931 16.45445 35793 ft 444 kts 330°
2026-05-06 20:38 47.70579 16.41715 35794 ft 444 kts 330°
2026-05-06 20:39 47.76225 16.37979 35790 ft 444 kts 330°
2026-05-06 20:39 47.81867 16.34231 35779 ft 444 kts 330°
2026-05-06 20:40 47.87475 16.30505 35780 ft 444 kts 330°
2026-05-06 20:40 47.93119 16.26751 35799 ft 444 kts 329°
2026-05-06 20:41 47.98757 16.22990 35797 ft 443 kts 329°
2026-05-06 20:41 48.04383 16.19225 35790 ft 443 kts 329°
2026-05-06 20:42 48.10002 16.15448 35787 ft 443 kts 329°
2026-05-06 20:42 48.15613 16.11665 35784 ft 442 kts 329°
2026-05-06 20:43 48.21187 16.07904 35778 ft 442 kts 330°
2026-05-06 20:43 48.26795 16.04124 35808 ft 442 kts 329°
2026-05-06 20:44 48.32404 16.00331 35780 ft 442 kts 329°
2026-05-06 20:44 48.38005 15.96516 35774 ft 442 kts 329°
2026-05-06 20:45 48.43570 15.92712 35769 ft 442 kts 329°
2026-05-06 20:45 48.49183 15.88889 35767 ft 443 kts 329°
2026-05-06 20:46 48.54804 15.85065 35759 ft 443 kts 329°
2026-05-06 20:46 48.60420 15.81223 35758 ft 443 kts 329°
2026-05-06 20:47 48.66036 15.77353 35768 ft 444 kts 328°
2026-05-06 20:47 48.71636 15.73477 35743 ft 446 kts 329°
2026-05-06 20:48 48.77296 15.69563 35749 ft 448 kts 329°
2026-05-06 20:48 48.82975 15.65639 35744 ft 449 kts 329°
2026-05-06 20:49 48.88617 15.61726 35741 ft 449 kts 328°
2026-05-06 20:49 48.94265 15.57673 35756 ft 449 kts 327°
2026-05-06 20:50 48.99863 15.53485 35776 ft 449 kts 327°
2026-05-06 20:50 49.05482 15.49294 35767 ft 450 kts 327°
2026-05-06 20:51 49.11082 15.45154 35760 ft 450 kts 327°
2026-05-06 20:51 49.16721 15.40976 35764 ft 450 kts 327°
2026-05-06 20:52 49.22353 15.36780 35768 ft 450 kts 327°
2026-05-06 20:52 49.27988 15.32585 35768 ft 450 kts 327°
2026-05-06 20:53 49.33623 15.28377 35814 ft 450 kts 327°
2026-05-06 20:53 49.39209 15.24187 35805 ft 450 kts 327°
2026-05-06 20:54 49.44826 15.19966 35802 ft 449 kts 327°
2026-05-06 20:54 49.50437 15.15742 35801 ft 448 kts 327°
2026-05-06 20:55 49.55998 15.11550 35803 ft 448 kts 327°
2026-05-06 20:55 49.61580 15.07325 35805 ft 447 kts 327°
2026-05-06 20:56 49.67161 15.03087 35803 ft 447 kts 327°
2026-05-06 20:56 49.72734 14.98838 35804 ft 447 kts 328°
2026-05-06 20:57 49.78311 14.94574 35803 ft 447 kts 328°
2026-05-06 20:57 49.83847 14.90336 35795 ft 447 kts 328°
2026-05-06 20:58 49.89414 14.86068 35785 ft 447 kts 328°
2026-05-06 20:58 49.94984 14.81781 35798 ft 447 kts 328°
2026-05-06 20:59 50.00560 14.77481 35794 ft 447 kts 328°
2026-05-06 20:59 50.06297 14.73795 35810 ft 457 kts 341°
2026-05-06 20:59 50.09452 14.72960 35790 ft 463 kts 352°
2026-05-06 21:00 50.12688 14.72939 35778 ft 468 kts
2026-05-06 21:00 50.19183 14.73832 35763 ft 469 kts
2026-05-06 21:01 50.25694 14.74689 35763 ft 470 kts
2026-05-06 21:01 50.32168 14.75552 35764 ft 471 kts
2026-05-06 21:02 50.38699 14.76430 35767 ft 471 kts
2026-05-06 21:02 50.45228 14.77311 35784 ft 471 kts
2026-05-06 21:03 50.51756 14.78201 35790 ft 471 kts
2026-05-06 21:03 50.58248 14.79086 35787 ft 472 kts
2026-05-06 21:03 50.61525 14.79531 35613 ft 473 kts
2026-05-06 21:04 50.64789 14.79787 35132 ft 467 kts 354°
2026-05-06 21:04 50.67992 14.79331 34621 ft 459 kts 345°
2026-05-06 21:04 50.71086 14.78267 34131 ft 453 kts 341°
2026-05-06 21:04 50.74148 14.77136 33611 ft 451 kts 342°
2026-05-06 21:05 50.77194 14.76020 33111 ft 447 kts 342°
2026-05-06 21:05 50.80172 14.74936 32645 ft 443 kts 342°
2026-05-06 21:05 50.83165 14.73848 32162 ft 440 kts 342°
2026-05-06 21:05 50.86135 14.72761 31692 ft 436 kts 342°
2026-05-06 21:06 50.89071 14.71678 31250 ft 432 kts 341°
2026-05-06 21:06 50.91992 14.70594 30763 ft 430 kts 341°
2026-05-06 21:06 50.94894 14.69514 30295 ft 426 kts 341°
2026-05-06 21:06 50.97764 14.68401 29841 ft 423 kts 340°
2026-05-06 21:07 51.00572 14.67271 29362 ft 419 kts 340°
2026-05-06 21:07 51.03376 14.66123 28931 ft 414 kts 340°
2026-05-06 21:07 51.06147 14.64983 28503 ft 409 kts 340°
2026-05-06 21:07 51.08885 14.63863 28078 ft 404 kts 340°
2026-05-06 21:08 51.11591 14.62760 27672 ft 400 kts 340°
2026-05-06 21:08 51.14262 14.61677 27316 ft 394 kts 341°
2026-05-06 21:08 51.16909 14.60609 26874 ft 391 kts 341°
2026-05-06 21:08 51.19539 14.59554 26440 ft 388 kts 341°
2026-05-06 21:09 51.22152 14.58502 25993 ft 386 kts 341°
2026-05-06 21:09 51.24709 14.57467 25553 ft 384 kts 341°
2026-05-06 21:09 51.27292 14.56420 25125 ft 382 kts 341°
2026-05-06 21:09 51.29855 14.55379 24701 ft 379 kts 341°
2026-05-06 21:10 51.32410 14.54337 24248 ft 378 kts 341°
2026-05-06 21:10 51.34957 14.53291 23793 ft 377 kts 341°
2026-05-06 21:10 51.37500 14.52260 23330 ft 377 kts 344°
2026-05-06 21:10 51.40105 14.51686 22831 ft 379 kts 351°
2026-05-06 21:11 51.42722 14.51294 22378 ft 377 kts 351°
2026-05-06 21:11 51.45325 14.50903 21920 ft 375 kts 351°
2026-05-06 21:11 51.47886 14.50513 21479 ft 373 kts 351°
2026-05-06 21:11 51.50464 14.50116 21035 ft 372 kts 351°
2026-05-06 21:12 51.53032 14.49718 20593 ft 370 kts 351°
2026-05-06 21:12 51.55593 14.49317 20151 ft 369 kts 351°
2026-05-06 21:12 51.58140 14.48920 19727 ft 367 kts 351°
2026-05-06 21:12 51.60682 14.48525 19270 ft 366 kts 352°
2026-05-06 21:13 51.63212 14.48137 18845 ft 365 kts 352°
2026-05-06 21:13 51.65741 14.47749 18406 ft 364 kts 352°
2026-05-06 21:13 51.68226 14.47367 17963 ft 363 kts 352°
2026-05-06 21:13 51.70739 14.46980 17506 ft 361 kts 352°
2026-05-06 21:14 51.73230 14.46598 17083 ft 358 kts 352°
2026-05-06 21:14 51.75702 14.46215 16673 ft 355 kts 352°
2026-05-06 21:14 51.78136 14.45837 16407 ft 349 kts 352°
2026-05-06 21:14 51.80545 14.45459 16007 ft 347 kts 352°
2026-05-06 21:15 51.82943 14.45084 15597 ft 346 kts 352°
2026-05-06 21:15 51.85324 14.44712 15193 ft 345 kts 352°
2026-05-06 21:15 51.87676 14.44347 14810 ft 343 kts 352°
2026-05-06 21:15 51.90050 14.43976 14401 ft 342 kts 352°
2026-05-06 21:16 51.92416 14.43605 14011 ft 341 kts 352°
2026-05-06 21:16 51.94752 14.43239 13804 ft 333 kts 352°
2026-05-06 21:16 51.97026 14.42885 13668 ft 324 kts 352°
2026-05-06 21:16 51.99237 14.42541 13553 ft 314 kts 352°
2026-05-06 21:17 52.01385 14.42204 13422 ft 306 kts 352°
2026-05-06 21:17 52.03472 14.41873 13279 ft 297 kts 352°
2026-05-06 21:17 52.05478 14.41552 13149 ft 290 kts 352°
2026-05-06 21:17 52.07455 14.41244 13014 ft 282 kts 355°
2026-05-06 21:18 52.09370 14.41730 12861 ft 279 kts 21°
2026-05-06 21:18 52.10975 14.43456 12595 ft 278 kts 47°
2026-05-06 21:18 52.11985 14.46099 12349 ft 275 kts 73°
2026-05-06 21:18 52.12240 14.49131 12083 ft 270 kts 98°
2026-05-06 21:19 52.11755 14.52028 11823 ft 264 kts 121°
2026-05-06 21:19 52.10651 14.54343 11565 ft 257 kts 144°
2026-05-06 21:19 52.09154 14.55887 11308 ft 254 kts 155°
2026-05-06 21:19 52.07602 14.57177 11052 ft 253 kts 157°
2026-05-06 21:20 52.06017 14.58413 10889 ft 252 kts 158°
2026-05-06 21:20 52.04945 14.59231 10838 ft 252 kts 158°
2026-05-06 21:20 52.02838 14.60828 10845 ft 252 kts 158°
2026-05-06 21:20 52.01241 14.61996 10844 ft 251 kts 164°
2026-05-06 21:21 51.99544 14.62482 10841 ft 247 kts 184°
2026-05-06 21:21 51.97873 14.62014 10843 ft 243 kts 203°
2026-05-06 21:21 51.96416 14.60675 10843 ft 241 kts 221°
2026-05-06 21:21 51.95339 14.58658 10841 ft 241 kts 240°
2026-05-06 21:22 51.94726 14.56145 10842 ft 242 kts 258°
2026-05-06 21:22 51.94662 14.53424 10792 ft 243 kts 276°
2026-05-06 21:22 51.95170 14.50808 10556 ft 246 kts 296°
2026-05-06 21:22 51.96226 14.48611 10316 ft 250 kts 316°
2026-05-06 21:23 51.97685 14.47047 10073 ft 253 kts 328°
2026-05-06 21:23 51.99232 14.45771 9893 ft 253 kts 331°
2026-05-06 21:23 52.00824 14.44564 9730 ft 252 kts 332°
2026-05-06 21:23 52.02418 14.43373 9472 ft 252 kts 332°
2026-05-06 21:24 52.04006 14.42183 9211 ft 251 kts 332°
2026-05-06 21:24 52.05632 14.41172 8942 ft 252 kts 348°
2026-05-06 21:24 52.07377 14.41337 8681 ft 255 kts 17°
2026-05-06 21:24 52.08876 14.42837 8423 ft 256 kts 47°
2026-05-06 21:25 52.09758 14.45312 8158 ft 254 kts 77°
2026-05-06 21:25 52.09819 14.48132 7919 ft 249 kts 106°
2026-05-06 21:25 52.09093 14.50600 7837 ft 245 kts 134°
2026-05-06 21:25 52.07771 14.52271 7845 ft 241 kts 157°
2026-05-06 21:26 52.06183 14.53253 7847 ft 252 kts 174°
2026-05-06 21:26 52.04514 14.52983 7844 ft 239 kts 205°
2026-05-06 21:26 52.03222 14.51373 7842 ft 238 kts 236°
2026-05-06 21:26 52.02608 14.48733 7849 ft 263 kts 264°
2026-05-06 21:27 52.02847 14.45763 7841 ft 271 kts 289°
2026-05-06 21:27 52.03828 14.43131 7850 ft 276 kts 306°
2026-05-06 21:27 52.04830 14.40489 7844 ft 274 kts 291°
2026-05-06 21:27 52.05314 14.37561 7845 ft 272 kts 274°
2026-05-06 21:28 52.05215 14.34518 7847 ft 271 kts 261°
2026-05-06 21:28 52.05084 14.31464 7847 ft 271 kts 269°
2026-05-06 21:28 52.05224 14.28407 7846 ft 272 kts 275°
2026-05-06 21:28 52.05433 14.25349 7846 ft 272 kts 275°
2026-05-06 21:29 52.05654 14.22295 7849 ft 272 kts 275°
2026-05-06 21:29 52.05879 14.19244 7849 ft 272 kts 275°
2026-05-06 21:29 52.06106 14.16191 7848 ft 272 kts 275°
2026-05-06 21:29 52.06328 14.13178 7847 ft 272 kts 275°
2026-05-06 21:30 52.06550 14.10120 7853 ft 272 kts 275°
2026-05-06 21:30 52.06775 14.06981 7852 ft 288 kts 275°
2026-05-06 21:30 52.07009 14.03711 7853 ft 293 kts 275°
2026-05-06 21:30 52.07244 14.00416 7853 ft 294 kts 275°
2026-05-06 21:31 52.07477 13.97115 7849 ft 294 kts 275°
2026-05-06 21:31 52.07709 13.93809 7852 ft 294 kts 275°
2026-05-06 21:31 52.07938 13.90544 7852 ft 294 kts 275°
2026-05-06 21:31 52.08165 13.87318 7847 ft 279 kts 275°
2026-05-06 21:32 52.08384 13.84218 7855 ft 275 kts 276°
2026-05-06 21:32 52.08810 13.78060 7856 ft 274 kts 275°
2026-05-06 21:32 52.09019 13.74983 7856 ft 274 kts 275°
2026-05-06 21:33 52.09226 13.71908 7856 ft 274 kts 275°
2026-05-06 21:33 52.09434 13.68829 7857 ft 274 kts 275°
2026-05-06 21:33 52.09643 13.65756 7861 ft 274 kts 275°
2026-05-06 21:33 52.09850 13.62719 7861 ft 274 kts 275°
2026-05-06 21:34 52.10072 13.59636 7629 ft 273 kts 276°
2026-05-06 21:34 52.10305 13.56580 7378 ft 272 kts 276°
2026-05-06 21:34 52.10540 13.53543 7119 ft 270 kts 276°
2026-05-06 21:34 52.10776 13.50512 6882 ft 270 kts 276°
2026-05-06 21:35 52.11005 13.47529 6636 ft 262 kts 276°
2026-05-06 21:35 52.11225 13.44619 6426 ft 254 kts 276°
2026-05-06 21:35 52.11437 13.41819 6242 ft 245 kts 276°
2026-05-06 21:35 52.11640 13.39146 6075 ft 238 kts 276°
2026-05-06 21:36 52.11867 13.36501 5944 ft 235 kts 283°
2026-05-06 21:36 52.12426 13.34010 5858 ft 235 kts 297°
2026-05-06 21:36 52.13345 13.31813 5857 ft 236 kts 306°
2026-05-06 21:36 52.14340 13.29678 5864 ft 237 kts 306°
2026-05-06 21:37 52.15330 13.27540 5857 ft 236 kts 306°
2026-05-06 21:37 52.16318 13.25398 5859 ft 237 kts 306°
2026-05-06 21:37 52.16972 13.23978 5859 ft 237 kts 306°
2026-05-06 21:37 52.18091 13.20956 5858 ft 236 kts 288°
2026-05-06 21:38 52.18392 13.18360 5615 ft 233 kts 270°
2026-05-06 21:38 52.18159 13.15765 5270 ft 232 kts 251°
2026-05-06 21:38 52.17569 13.13324 4929 ft 231 kts 248°
2026-05-06 21:38 52.17066 13.10891 4740 ft 223 kts 263°
2026-05-06 21:39 52.17298 13.08457 4468 ft 220 kts 297°
2026-05-06 21:39 52.17909 13.07157 4291 ft 220 kts 320°
2026-05-06 21:39 52.19221 13.05871 4051 ft 220 kts 333°
2026-05-06 21:39 52.21073 13.04481 3993 ft 222 kts 335°
2026-05-06 21:40 52.22485 13.03446 3999 ft 223 kts 336°
2026-05-06 21:40 52.23994 13.03020 3995 ft 223 kts
2026-05-06 21:40 52.25429 13.03962 4006 ft 225 kts 34°
2026-05-06 21:40 52.26189 13.05104 4003 ft 226 kts 52°
2026-05-06 21:41 52.27093 13.08183 4010 ft 226 kts 69°
2026-05-06 21:41 52.27473 13.09765 4008 ft 226 kts 69°
2026-05-06 21:41 52.28049 13.12156 4005 ft 225 kts 68°
2026-05-06 21:41 52.28807 13.15295 4007 ft 223 kts 68°
2026-05-06 21:42 52.29360 13.17584 3996 ft 210 kts 68°
2026-05-06 21:42 52.29883 13.19753 3894 ft 200 kts 68°
2026-05-06 21:42 52.30217 13.21137 3725 ft 196 kts 68°
2026-05-06 21:42 52.30708 13.23178 3474 ft 191 kts 69°
2026-05-06 21:43 52.31188 13.25173 3225 ft 186 kts 69°
2026-05-06 21:43 52.31657 13.27125 2982 ft 182 kts 69°
2026-05-06 21:43 52.32113 13.29024 2732 ft 177 kts 69°
2026-05-06 21:43 52.32693 13.31439 2417 ft 166 kts 68°
2026-05-06 21:44 52.32971 13.32599 2269 ft 159 kts 69°
2026-05-06 21:44 52.33369 13.34261 2060 ft 155 kts 68°
2026-05-06 21:44 52.33751 13.35859 1849 ft 152 kts 68°
2026-05-06 21:44 52.34133 13.37454 1648 ft 150 kts 67°
2026-05-06 21:45 52.34507 13.39017 1429 ft 146 kts 68°
2026-05-06 21:45 52.34879 13.40542 1224 ft 143 kts 66°
2026-05-06 21:45 52.35246 13.42065 999 ft 144 kts 67°
2026-05-06 21:45 52.35603 13.43582 788 ft 144 kts 66°
2026-05-06 21:46 52.35955 13.45112 572 ft 144 kts 67°
2026-05-06 21:46 52.36313 13.46633 414 ft 143 kts 66°
2026-05-06 21:46 52.36686 13.48150 253 ft 143 kts 65°
2026-05-06 21:46 52.37047 13.49636 155 ft 131 kts 68°
2026-05-06 21:47 52.37310 13.50775 155 ft 82 kts 68°
2026-05-06 21:47 52.37443 13.51363 155 ft 35 kts 79°
2026-05-06 21:47 52.37446 13.51669 155 ft 19 kts 98°
2026-05-06 21:47 52.37429 13.51850 155 ft 9 kts 98°
2026-05-06 21:48 52.37426 13.51884 155 ft 0 kts 99°
2026-05-06 21:49 52.37424 13.51897 155 ft 3 kts 99°
2026-05-06 21:49 52.37421 13.51938 155 ft 5 kts 99°
2026-05-06 21:49 52.37401 13.51986 155 ft 6 kts 139°
2026-05-06 21:49 52.37360 13.52023 155 ft 8 kts 154°
2026-05-06 21:50 52.37305 13.52055 155 ft 9 kts 175°
2026-05-06 21:50 52.37263 13.51984 155 ft 10 kts 245°
2026-05-06 21:50 52.37236 13.51876 155 ft 11 kts 249°
2026-05-06 21:50 52.37207 13.51750 155 ft 13 kts 249°
2026-05-06 21:51 52.37173 13.51611 155 ft 13 kts 249°
2026-05-06 21:51 52.37149 13.51506 155 ft 8 kts 249°
2026-05-06 21:51 52.37106 13.51479 155 ft 6 kts 174°
2026-05-06 21:51 52.37062 13.51479 155 ft 8 kts 200°
2026-05-06 21:52 52.37030 13.51406 155 ft 8 kts 248°
2026-05-06 21:52 52.37005 13.51302 155 ft 10 kts 249°
2026-05-06 21:52 52.36982 13.51205 155 ft 9 kts 249°
2026-05-06 21:52 52.36957 13.51102 155 ft 13 kts 249°
2026-05-06 21:53 52.36925 13.50965 155 ft 12 kts 248°
2026-05-06 21:53 52.36895 13.50842 155 ft 11 kts 249°
2026-05-06 21:53 52.36869 13.50733 155 ft 10 kts 249°
2026-05-06 21:53 52.36850 13.50654 155 ft 5 kts 239°
2026-05-06 21:54 52.36826 13.50649 155 ft 3 kts 167°
2026-05-06 21:54 52.36809 13.50659 155 ft 2 kts 159°
2026-05-06 21:54 52.36797 13.50666 155 ft 1 kts 160°
2026-05-06 21:54 52.36785 13.50674 155 ft 2 kts 159°
2026-05-06 21:55 52.36777 13.50679 155 ft 1 kts 159°
2026-05-06 21:55 52.36774 13.50680 155 ft 1 kts 159°
2026-05-06 21:55 52.36770 13.50683 155 ft 0 kts 159°